Location: Sofia
(42.6977°N, 23.3219°E)
Time: 12:38:17
(UTC+03:00)

NOAA 15 - Pass Details

Date: 27 February 2024
Orbit: 795 x 811 km, 98.6° (Epoch: 12 April)

Event Time Altitude Azimuth Distance (km) Brightness Sun altitude
Rises 18:49:12 0° 153° (SSE) 3,302 7.6 -7.4°
Reaches altitude 10° 18:51:33 10° 149° (SSE) 2,378 6.8 -7.9°
Maximum altitude 18:56:42 58° 72° (ENE) 943 4.7 -8.8°
Drops below altitude 10° 19:01:53 10° 354° (N) 2,403 7.1 -9.8°
Sets 19:04:16 0° 351° (N) 3,340 7.9 -10.2°
